• In Moldova, Republic
  • List of Countries
  • For 7 days
  • Water Temperature
  • Satellite Maps
  • Weather Map
  • Weather Widgets
  • user-avatar
    Login

    Hourly Weather Sidi Bu-l-Abbas

    Today, 22 February, Thursday

    Time Temperature Precipitation Wind Pressure Humidity
    00:00 +7°C° 0 mm 2 mps 712 mmHg 90%
    01:00 +6°C° 0.2 mm 2 mps 711 mmHg 90%
    02:00 +6°C° 0.2 mm 2 mps 711 mmHg 90%
    03:00 +6°C° 0.2 mm 2 mps 711 mmHg 90%
    04:00 +6°C° 0.1 mm 2 mps 711 mmHg 89%
    05:00 +6°C° 0.1 mm 2 mps 712 mmHg 89%
    06:00 +7°C° 0 mm 1 mps 712 mmHg 88%
    07:00 +7°C° 0 mm 1 mps 712 mmHg 83%
    08:00 +8°C° 0 mm 1 mps 712 mmHg 77%
    09:00 +9°C° 0 mm 1 mps 712 mmHg 72%
    10:00 +10°C° 0 mm 1 mps 712 mmHg 65%
    11:00 +10°C° 0 mm 2 mps 713 mmHg 58%
    12:00 +12°C° 0 mm 2 mps 713 mmHg 52%
    13:00 +11°C° 0 mm 3 mps 712 mmHg 50%
    14:00 +12°C° 0 mm 4 mps 712 mmHg 49%
    15:00 +12°C° 0 mm 5 mps 712 mmHg 47%
    16:00 +11°C° 0 mm 4 mps 712 mmHg 54%
    17:00 +10°C° 0 mm 4 mps 712 mmHg 61%
    18:00 +9°C° 0 mm 3 mps 712 mmHg 68%
    19:00 +8°C° 0 mm 3 mps 712 mmHg 70%
    20:00 +8°C° 0 mm 3 mps 712 mmHg 72%
    21:00 +7°C° 0 mm 2 mps 712 mmHg 75%
    22:00 +7°C° 0 mm 2 mps 712 mmHg 75%
    23:00 +7°C° 0 mm 2 mps 712 mmHg 76%

    Tomorrow, 23 February, Friday

    Time Temperature Precipitation Wind Pressure Humidity
    00:00 +6°C° 0 mm 2 mps 712 mmHg 77%
    01:00 +6°C° 0 mm 2 mps 712 mmHg 78%
    02:00 +6°C° 0 mm 2 mps 712 mmHg 79%
    03:00 +6°C° 0 mm 2 mps 711 mmHg 80%
    04:00 +5°C° 0 mm 2 mps 711 mmHg 81%
    05:00 +5°C° 0 mm 2 mps 711 mmHg 82%
    06:00 +5°C° 0 mm 2 mps 711 mmHg 82%
    07:00 +7°C° 0 mm 2 mps 712 mmHg 74%
    08:00 +9°C° 0 mm 1 mps 712 mmHg 67%
    09:00 +11°C° 0 mm 1 mps 712 mmHg 59%
    10:00 +12°C° 0 mm 2 mps 712 mmHg 53%
    11:00 +13°C° 0 mm 2 mps 712 mmHg 48%
    12:00 +15°C° 0 mm 2 mps 712 mmHg 42%
    13:00 +14°C° 0 mm 3 mps 711 mmHg 41%
    14:00 +16°C° 0 mm 3 mps 711 mmHg 40%
    15:00 +15°C° 0 mm 4 mps 710 mmHg 38%
    16:00 +14°C° 0 mm 4 mps 710 mmHg 45%
    17:00 +12°C° 0 mm 4 mps 710 mmHg 51%
    18:00 +10°C° 0 mm 4 mps 710 mmHg 58%
    19:00 +9°C° 0 mm 3 mps 710 mmHg 62%
    20:00 +9°C° 0 mm 3 mps 710 mmHg 65%
    21:00 +8°C° 0 mm 2 mps 710 mmHg 69%
    22:00 +7°C° 0 mm 2 mps 710 mmHg 71%
    23:00 +7°C° 0 mm 2 mps 710 mmHg 72%

    Day after tomorrow, 24 February, Saturday

    Time Temperature Precipitation Wind Pressure Humidity
    00:00 +7°C° 0 mm 1 mps 710 mmHg 74%
    01:00 +7°C° 0 mm 1 mps 710 mmHg 75%
    02:00 +7°C° 0 mm 1 mps 710 mmHg 75%
    03:00 +6°C° 0 mm 1 mps 709 mmHg 76%
    04:00 +6°C° 0 mm 1 mps 709 mmHg 78%
    05:00 +6°C° 0 mm 1 mps 709 mmHg 79%
    06:00 +6°C° 0 mm 1 mps 709 mmHg 81%
    07:00 +7°C° 0 mm 1 mps 710 mmHg 74%
    08:00 +9°C° 0 mm 1 mps 711 mmHg 67%
    09:00 +10°C° 0 mm 1 mps 711 mmHg 60%
    10:00 +10°C° 0 mm 2 mps 712 mmHg 56%
    11:00 +12°C° 0 mm 3 mps 712 mmHg 52%
    12:00 +13°C° 0 mm 4 mps 712 mmHg 48%
    13:00 +13°C° 0 mm 4 mps 712 mmHg 48%
    14:00 +13°C° 0 mm 4 mps 712 mmHg 49%
    15:00 +13°C° 0 mm 5 mps 712 mmHg 50%
    16:00 +11°C° 0 mm 4 mps 712 mmHg 56%
    17:00 +10°C° 0 mm 3 mps 713 mmHg 63%
    18:00 +8°C° 0 mm 2 mps 713 mmHg 70%
    19:00 +8°C° 0 mm 2 mps 714 mmHg 75%
    20:00 +8°C° 0 mm 1 mps 714 mmHg 79%
    21:00 +6°C° 0 mm 0 mps 715 mmHg 84%
    22:00 +6°C° 0 mm 0 mps 715 mmHg 83%
    23:00 +7°C° 0 mm 1 mps 715 mmHg 83%

    25 February, Sunday

    Time Temperature Precipitation Wind Pressure Humidity
    00:00 +7°C° 0 mm 1 mps 715 mmHg 82%
    01:00 +6°C° 0 mm 1 mps 715 mmHg 81%
    02:00 +6°C° 0 mm 1 mps 715 mmHg 81%
    03:00 +6°C° 0 mm 1 mps 714 mmHg 80%
    04:00 +6°C° 0 mm 1 mps 715 mmHg 80%
    05:00 +6°C° 0 mm 1 mps 715 mmHg 80%
    06:00 +5°C° 0 mm 1 mps 715 mmHg 80%
    07:00 +8°C° 0 mm 1 mps 715 mmHg 71%
    08:00 +10°C° 0 mm 1 mps 716 mmHg 62%
    09:00 +12°C° 0 mm 1 mps 717 mmHg 53%
    10:00 +13°C° 0 mm 2 mps 717 mmHg 51%
    11:00 +13°C° 0 mm 3 mps 717 mmHg 48%
    12:00 +14°C° 0 mm 4 mps 717 mmHg 46%
    13:00 +14°C° 0 mm 4 mps 716 mmHg 46%
    14:00 +14°C° 0 mm 4 mps 716 mmHg 46%
    15:00 +14°C° 0 mm 4 mps 716 mmHg 47%
    16:00 +13°C° 0 mm 3 mps 716 mmHg 54%
    17:00 +12°C° 0 mm 2 mps 716 mmHg 61%
    18:00 +10°C° 0 mm 1 mps 716 mmHg 68%
    19:00 +10°C° 0 mm 1 mps 716 mmHg 71%
    20:00 +9°C° 0 mm 1 mps 716 mmHg 74%
    21:00 +9°C° 0 mm 1 mps 716 mmHg 77%
    22:00 +8°C° 0 mm 1 mps 716 mmHg 76%
    23:00 +8°C° 0 mm 1 mps 716 mmHg 76%

    26 February, Monday

    Time Temperature Precipitation Wind Pressure Humidity
    00:00 +7°C° 0 mm 2 mps 715 mmHg 76%
    01:00 +7°C° 0 mm 2 mps 715 mmHg 75%
    02:00 +7°C° 0 mm 2 mps 715 mmHg 75%
    03:00 +7°C° 0 mm 2 mps 714 mmHg 74%
    04:00 +7°C° 0 mm 2 mps 714 mmHg 74%
    05:00 +7°C° 0 mm 2 mps 714 mmHg 73%
    06:00 +7°C° 0 mm 2 mps 714 mmHg 72%
    07:00 +9°C° 0 mm 2 mps 714 mmHg 64%
    08:00 +12°C° 0 mm 2 mps 714 mmHg 56%
    09:00 +15°C° 0 mm 2 mps 714 mmHg 47%
    10:00 +16°C° 0 mm 2 mps 713 mmHg 42%
    11:00 +18°C° 0 mm 2 mps 713 mmHg 38%
    12:00 +20°C° 0 mm 2 mps 713 mmHg 33%
    13:00 +20°C° 0 mm 3 mps 712 mmHg 33%
    14:00 +21°C° 0 mm 4 mps 711 mmHg 33%
    15:00 +21°C° 0 mm 5 mps 710 mmHg 34%
    16:00 +19°C° 0 mm 4 mps 710 mmHg 41%
    17:00 +17°C° 0 mm 3 mps 709 mmHg 49%
    18:00 +14°C° 0 mm 3 mps 709 mmHg 56%
    19:00 +14°C° 0 mm 2 mps 709 mmHg 59%
    20:00 +13°C° 0 mm 2 mps 710 mmHg 62%
    21:00 +13°C° 0 mm 2 mps 710 mmHg 65%
    22:00 +12°C° 0 mm 2 mps 711 mmHg 67%
    23:00 +12°C° 0 mm 2 mps 711 mmHg 69%

    27 February, Tuesday

    Time Temperature Precipitation Wind Pressure Humidity
    00:00 +11°C° 0 mm 3 mps 712 mmHg 71%
    01:00 +10°C° 0.1 mm 3 mps 712 mmHg 73%
    02:00 +10°C° 0.1 mm 4 mps 712 mmHg 75%
    03:00 +10°C° 0.1 mm 4 mps 713 mmHg 77%
    04:00 +10°C° 0.2 mm 3 mps 713 mmHg 80%
    05:00 +9°C° 0.2 mm 3 mps 713 mmHg 82%
    06:00 +9°C° 0.2 mm 3 mps 713 mmHg 85%
    07:00 +10°C° 0 mm 3 mps 714 mmHg 80%
    08:00 +11°C° 0 mm 4 mps 715 mmHg 75%
    09:00 +12°C° 0 mm 5 mps 715 mmHg 70%
    10:00 +13°C° 0 mm 6 mps 715 mmHg 64%
    11:00 +14°C° 0 mm 7 mps 715 mmHg 59%
    12:00 +15°C° 0 mm 8 mps 715 mmHg 54%
    13:00 +15°C° 0 mm 8 mps 715 mmHg 52%
    14:00 +16°C° 0 mm 8 mps 715 mmHg 51%
    15:00 +16°C° 0 mm 8 mps 715 mmHg 50%
    16:00 +14°C° 0 mm 6 mps 715 mmHg 56%
    17:00 +13°C° 0 mm 4 mps 715 mmHg 62%
    18:00 +12°C° 0 mm 3 mps 715 mmHg 69%
    19:00 +11°C° 0 mm 3 mps 715 mmHg 72%
    20:00 +10°C° 0 mm 2 mps 716 mmHg 76%
    21:00 +9°C° 0 mm 2 mps 716 mmHg 79%
    22:00 +10°C° 0 mm 1 mps 716 mmHg 77%
    23:00 +10°C° 0 mm 1 mps 716 mmHg 76%
    Show more